Temp
7 7 8 8 8 8 7 6 7 6 6 5 4 5 6 6 6 5 5 5 6 6 7 7 6 6 6 6 5 5 5 5 5 5 5 5 6 5 5 4 4 5 5 5 5 5 6 6 6
8 7 8 8 8 7 6 5 6 6 6 4 3 5 5 5 6 4 4 4 6 7 6 6 6 6 6 5 5 5 5 4 5 5 5 5 5 5 5 4 5 4 5 5 5 5 5 5 5
8 7 7 7 7 7 5 5 5 4 3 4 3 4 4 5 4 3 4 5 4 5 6 6 6 5 5 5 5 5 5 4 4 4 4 4 5 5 4 4 4 4 4 5 5 4 5 5 5
9 7 7 7 7 6 6 5 4 2 2 2 4 4 4 4 4 3 4 4 4 4 5 5 5 5 5 4 5 4 4 4 4 4 4 4 4 5 4 4 3 3 4 4 4 4 4 5 5
9 8 7 7 7 6 6 5 5 4 3 4 3 3 4 4 4 3 4 4 4 4 4 4 5 4 4 4 4 4 4 4 4 4 4 4 4 4 4 4 4 4 4 4 4 4 4 4 5
8 8 6 6 6 5 5 5 5 4 5 4 3 2 4 4 3 3 3 3 3 3 4 4 4 4 3 3 3 4 3 1 2 4 3 3 4 4 4 4 4 4 4 4 4 4 4 4 5
9 7 6 5 5 5 5 4 4 4 4 4 4 3 3 3 3 3 2 3 3 3 3 3 3 4 4 3 3 3 3 3 2 2 3 3 4 3 3 3 3 3 4 4 4 3 4 4 4
8 7 6 6 5 4 4 4 5 4 4 3 3 3 3 2 2 3 2 3 3 3 2 3 3 3 2 3 3 2 2 3 2 2 1 2 3 3 3 3 3 3 4 4 4 3 3 4 4
8 6 5 6 5 5 5 5 4 3 3 4 3 3 2 2 2 2 2 2 2 2 2 2 3 3 3 2 3 3 1 2 2 1 1 1 1 2 3 3 3 3 3 3 3 3 3 3 4
8 7 7 6 6 5 4 4 4 3 3 3 3 3 3 3 2 2 1 1 2 1 1 1 2 2 2 2 2 2 2 2 2 1 1 1 1 2 2 2 3 3 3 3 2 3 3 3 3
8 8 7 7 6 5 4 5 4 3 3 3 2 2 2 2 2 2 1 1 1 1 1 1 1 1 2 2 1 1 2 1 2 2 2 1 1 1 2 3 2 3 3 4 3 3 3 3 3
8 8 7 6 6 5 5 4 4 3 3 3 3 3 2 2 2 1 0 1 1 0 1 1 0 0 1 1 1 0 1 2 2 2 2 1 2 1 2 2 2 2 3 3 2 2 2 2 3
8 8 7 6 6 5 4 4 4 4 3 3 3 2 2 2 2 1 0 0 0 -0 -0 0 0 0 -0 -0 -0 -0 -1 1 2 1 1 1 1 0 0 1 2 2 2 2 2 1 1 2 2
7 7 7 6 5 5 4 4 4 4 4 4 3 3 3 2 1 1 0 -0 -0 -1 -1 -1 -1 -1 -1 -1 -1 -1 -3 -1 0 1 1 1 1 0 1 1 1 2 2 2 2 1 2 1 1
7 7 6 6 6 5 4 4 4 3 3 3 4 4 4 3 2 1 0 0 -0 -1 -1 -2 -2 -2 -2 -2 -2 -2 -3 -2 -1 0 1 1 0 1 2 2 1 1 2 2 2 2 2 2 2
6 7 7 7 6 4 4 6 5 4 3 3 4 4 4 3 3 2 1 0 -0 -1 -2 -2 -2 -2 -2 -2 -2 -2 -2 -2 -2 -1 0 1 1 1 1 2 1 1 1 2 1 1 1 2 1
6 6 6 6 6 4 4 5 5 4 3 3 3 3 4 3 3 2 1 0 -1 -1 -2 -2 -2 -2 -2 -2 -2 -3 -2 -2 -1 -1 0 1 2 1 1 0 1 1 1 1 1 1 1 1 0
6 5 5 6 6 5 5 5 5 4 3 3 3 3 3 3 2 2 1 -0 -1 -2 -2 -3 -2 -2 -2 -2 -2 -2 -2 -2 -2 -1 -0 1 2 2 1 0 0 0 1 0 1 1 1 1 0
5 6 5 6 6 6 6 6 5 4 3 2 3 3 3 2 2 1 0 -0 -1 -1 -2 -3 -3 -3 -2 -2 -2 -1 -1 -1 -1 -1 -1 0 1 1 1 1 1 0 -0 1 1 1 1 1 1
5 6 5 5 6 6 6 7 7 5 3 2 3 3 2 2 2 1 1 0 -0 -1 -2 -3 -3 -3 -2 -2 -2 -2 -1 -1 -1 -1 -0 0 1 1 1 1 1 1 1 0 1 1 1 1 1
6 5 5 5 6 7 6 7 7 5 3 3 3 3 2 2 2 1 1 0 -1 -1 -2 -3 -3 -3 -2 -2 -2 -2 -2 -1 -1 -1 -1 0 1 1 1 0 1 0 0 1 1 1 1 1 0
5 4 5 5 5 5 5 4 7 5 4 4 3 2 2 2 2 1 1 0 -1 -2 -3 -3 -3 -3 -3 -1 -1 -1 -1 -1 -2 -1 -1 0 0 1 1 1 1 0 1 1 0 1 0 1 0
4 4 5 4 4 2 3 2 6 5 4 4 2 2 2 2 2 1 0 0 -1 -2 -2 -3 -3 -3 -3 -2 -1 -0 -0 -1 -1 -1 -0 -1 -1 -0 1 0 0 -0 -1 0 1 1 1 1 0
4 4 4 3 2 -3 2 3 6 5 4 3 2 2 2 2 2 1 1 0 -1 -1 -2 -3 -3 -3 -2 -1 -2 -1 -1 -2 -1 -2 -0 -1 -1 -0 0 -0 -0 -0 0 0 1 1 1 0 -0
4 4 4 -1 -3 -4 2 2 6 6 5 3 2 2 2 2 1 1 1 0 -0 -1 -2 -2 -2 -2 -2 -2 -1 -1 -2 -1 -2 -1 -1 -1 -1 -1 -1 -0 -0 -0 -0 0 1 1 0 0 0
4 4 3 -2 -4 -3 2 2 6 6 5 4 3 2 2 2 2 1 1 1 -0 -1 -2 -1 -2 -2 -2 -1 -1 -3 -3 -2 -1 -1 -2 -0 -1 -1 -2 -1 -0 -0 -0 -0 -0 0 -0 0 0
3 2 2 2 -1 -2 3 5 6 5 5 4 3 2 2 2 2 1 1 1 0 -0 -0 -1 -1 -1 -1 -0 -1 -1 -1 -1 -0 -0 -0 -1 -2 -1 -1 -1 -1 -0 -1 -0 -0 -0 -0 -0 -0
2 2 2 1 -4 -3 1 3 6 6 5 4 4 3 2 2 2 2 1 1 1 1 0 -0 0 0 0 0 0 1 0 0 -0 -0 -1 -1 -2 -2 -2 -2 -1 -1 -1 -0 -0 -0 -0 -0 -0
2 2 2 1 1 -6 -7 4 6 6 5 5 4 3 2 2 2 2 1 1 1 2 1 1 1 1 1 1 1 1 1 1 1 1 -0 -0 -1 -1 -1 -2 -2 -1 -1 0 0 -0 -0 -0 -0
2 2 1 2 -0 -0 -1 3 6 6 5 4 4 4 3 2 2 2 2 1 2 2 2 2 2 2 2 1 2 2 1 2 2 2 1 0 -1 -1 -1 -2 -1 -0 -1 -1 -1 -1 -0 -0 -0
Height
3150 3151 3152 3153 3159 3155 3156 3158 3156 3156 3156 3155 3154 3156 3158 3156 3156 3158 3152 3151 3151 3151 3152 3152 3152 3152 3153 3153 3153 3153 3154 3155 3155 3155 3155 3156 3156 3157 3159 3158 3160 3161 3162 3161 3161 3160 3160 3160 3160
3150 3151 3152 3152 3155 3155 3157 3156 3155 3155 3155 3154 3154 3154 3155 3155 3152 3151 3150 3149 3150 3151 3150 3150 3150 3150 3149 3149 3150 3150 3151 3152 3152 3153 3153 3154 3154 3156 3157 3158 3159 3160 3161 3161 3160 3160 3160 3160 3159
3150 3151 3153 3152 3153 3153 3154 3154 3155 3152 3150 3152 3152 3152 3153 3152 3150 3148 3147 3148 3147 3147 3147 3147 3147 3146 3146 3145 3143 3147 3148 3148 3149 3149 3150 3151 3152 3153 3155 3156 3157 3159 3160 3160 3160 3160 3160 3159 3159
3150 3153 3154 3153 3152 3153 3152 3152 3154 3152 3149 3148 3151 3150 3149 3147 3148 3146 3144 3145 3144 3144 3143 3143 3142 3141 3141 3142 3142 3140 3141 3142 3142 3144 3146 3147 3149 3150 3152 3154 3156 3158 3159 3159 3159 3160 3160 3160 3159
3150 3152 3153 3153 3151 3152 3153 3152 3151 3149 3147 3147 3147 3146 3144 3145 3144 3141 3140 3141 3140 3138 3138 3138 3137 3136 3135 3136 3138 3137 3132 3135 3138 3140 3141 3143 3145 3147 3149 3151 3154 3156 3157 3158 3159 3159 3160 3160 3159
3150 3150 3151 3152 3151 3150 3151 3150 3149 3147 3146 3145 3144 3141 3140 3141 3139 3138 3135 3135 3134 3132 3132 3132 3132 3130 3130 3130 3133 3132 3130 3129 3132 3136 3138 3139 3141 3143 3146 3148 3151 3154 3155 3156 3157 3158 3159 3159 3159
3148 3149 3150 3151 3151 3149 3148 3147 3147 3146 3143 3143 3142 3138 3138 3136 3134 3132 3130 3128 3127 3126 3124 3124 3125 3125 3125 3125 3127 3130 3127 3127 3126 3131 3135 3136 3138 3140 3143 3145 3147 3150 3152 3154 3154 3155 3156 3158 3158
3147 3148 3148 3149 3150 3149 3147 3144 3145 3143 3142 3141 3139 3136 3134 3133 3131 3130 3126 3124 3122 3119 3118 3117 3117 3118 3119 3120 3122 3124 3125 3123 3121 3126 3129 3132 3134 3137 3140 3142 3144 3146 3149 3151 3152 3154 3155 3156 3157
3146 3147 3146 3146 3147 3146 3145 3144 3142 3140 3138 3137 3136 3135 3133 3130 3127 3125 3122 3118 3116 3113 3112 3111 3110 3110 3111 3113 3115 3117 3119 3121 3118 3122 3125 3125 3129 3133 3137 3139 3142 3144 3146 3148 3151 3151 3154 3155 3155
3145 3145 3145 3146 3145 3144 3143 3141 3139 3138 3135 3131 3130 3131 3129 3126 3123 3120 3118 3115 3112 3110 3107 3105 3103 3102 3103 3104 3107 3110 3112 3116 3117 3116 3120 3122 3123 3128 3131 3134 3138 3141 3143 3145 3147 3148 3150 3153 3154
3144 3144 3145 3145 3144 3142 3140 3139 3138 3136 3133 3131 3128 3125 3124 3122 3120 3116 3113 3110 3107 3105 3102 3100 3098 3096 3096 3096 3098 3101 3105 3108 3111 3113 3117 3117 3118 3122 3126 3131 3134 3137 3140 3141 3145 3145 3147 3150 3152
3144 3143 3144 3145 3142 3140 3138 3136 3135 3133 3132 3130 3127 3125 3122 3118 3116 3113 3110 3106 3103 3099 3097 3094 3091 3090 3089 3089 3091 3093 3096 3101 3105 3108 3111 3113 3114 3117 3123 3126 3131 3134 3136 3138 3141 3141 3145 3147 3150
3143 3143 3143 3143 3141 3138 3136 3135 3133 3131 3130 3127 3124 3121 3118 3115 3112 3109 3106 3103 3099 3095 3092 3090 3087 3084 3083 3083 3084 3085 3088 3092 3097 3101 3105 3108 3111 3111 3116 3120 3125 3130 3133 3136 3138 3139 3141 3144 3148
3143 3142 3142 3142 3140 3137 3134 3132 3130 3129 3127 3125 3122 3119 3116 3112 3109 3106 3102 3098 3095 3091 3087 3085 3082 3080 3079 3077 3078 3078 3081 3085 3090 3093 3097 3101 3105 3107 3112 3115 3119 3125 3128 3132 3134 3135 3140 3141 3145
3142 3142 3140 3140 3138 3135 3132 3131 3129 3126 3123 3121 3119 3116 3112 3109 3107 3104 3100 3095 3091 3087 3084 3080 3077 3075 3074 3073 3073 3073 3073 3077 3083 3086 3090 3092 3096 3100 3102 3112 3113 3118 3124 3128 3132 3134 3137 3142 3143
3141 3140 3138 3138 3136 3134 3132 3129 3127 3124 3121 3120 3117 3113 3108 3105 3103 3101 3097 3093 3087 3082 3078 3075 3073 3071 3070 3068 3068 3068 3069 3071 3075 3079 3083 3085 3089 3093 3097 3104 3109 3112 3119 3124 3128 3131 3136 3140 3142
3139 3138 3136 3137 3136 3133 3131 3127 3124 3122 3120 3117 3114 3111 3107 3103 3100 3096 3092 3087 3083 3078 3074 3071 3067 3066 3065 3063 3063 3063 3066 3066 3068 3071 3074 3076 3082 3086 3090 3098 3104 3107 3115 3120 3124 3127 3132 3136 3138
3138 3137 3135 3134 3134 3131 3128 3126 3123 3120 3117 3115 3113 3110 3106 3101 3099 3094 3089 3085 3080 3075 3069 3065 3062 3061 3061 3059 3059 3060 3060 3061 3063 3065 3068 3070 3075 3080 3086 3093 3097 3101 3110 3115 3120 3124 3129 3132 3135
3137 3135 3133 3132 3131 3129 3126 3124 3122 3117 3113 3112 3111 3108 3103 3100 3097 3092 3088 3084 3077 3071 3064 3060 3057 3056 3055 3055 3054 3055 3055 3057 3059 3060 3062 3066 3067 3074 3082 3088 3093 3096 3104 3111 3117 3121 3125 3129 3132
3135 3133 3132 3129 3128 3126 3124 3121 3118 3116 3113 3111 3109 3106 3104 3099 3093 3090 3086 3081 3074 3067 3061 3056 3053 3050 3049 3049 3050 3050 3051 3053 3055 3057 3059 3063 3066 3070 3077 3083 3089 3093 3099 3109 3113 3118 3122 3126 3129
3133 3132 3130 3128 3124 3123 3120 3117 3116 3115 3112 3109 3108 3106 3103 3099 3093 3088 3084 3078 3071 3064 3058 3053 3049 3045 3043 3044 3046 3048 3048 3049 3051 3054 3058 3061 3062 3066 3075 3080 3086 3091 3098 3105 3110 3115 3120 3123 3126
3131 3130 3128 3126 3123 3122 3121 3119 3114 3113 3110 3109 3107 3104 3101 3097 3092 3087 3083 3076 3069 3063 3056 3050 3046 3042 3038 3038 3042 3045 3046 3048 3049 3051 3056 3058 3057 3064 3072 3078 3084 3089 3094 3100 3107 3112 3116 3119 3122
3131 3128 3125 3123 3121 3120 3119 3120 3111 3110 3107 3106 3104 3102 3100 3097 3091 3087 3081 3075 3068 3062 3055 3049 3045 3040 3036 3035 3037 3040 3042 3045 3047 3049 3052 3055 3060 3063 3068 3075 3082 3087 3093 3100 3104 3108 3112 3117 3119
3128 3126 3123 3120 3119 3119 3118 3120 3110 3109 3108 3105 3103 3102 3099 3095 3090 3086 3081 3074 3068 3062 3054 3049 3044 3040 3037 3035 3036 3037 3041 3043 3044 3047 3049 3055 3057 3061 3068 3073 3079 3086 3091 3097 3102 3105 3110 3113 3117
3127 3126 3123 3123 3121 3121 3117 3117 3110 3109 3108 3107 3104 3100 3098 3094 3089 3085 3078 3073 3067 3060 3054 3049 3045 3041 3039 3037 3036 3038 3040 3044 3043 3047 3050 3054 3056 3061 3066 3071 3077 3082 3089 3093 3098 3102 3106 3110 3113
3125 3126 3125 3132 3128 3119 3115 3111 3110 3109 3108 3105 3103 3100 3097 3093 3090 3085 3079 3073 3067 3061 3055 3049 3044 3044 3043 3040 3040 3039 3039 3041 3043 3045 3050 3054 3056 3059 3063 3068 3074 3080 3085 3089 3093 3096 3100 3106 3109
3124 3125 3126 3124 3122 3121 3112 3109 3108 3107 3107 3105 3103 3099 3096 3093 3088 3084 3079 3074 3068 3063 3057 3051 3046 3044 3043 3044 3042 3042 3043 3042 3044 3046 3048 3050 3052 3055 3059 3066 3071 3077 3082 3086 3091 3095 3099 3102 3104
3124 3125 3124 3123 3126 3125 3111 3107 3105 3106 3105 3103 3101 3099 3096 3092 3089 3084 3080 3074 3068 3063 3058 3054 3050 3046 3043 3043 3044 3040 3042 3043 3044 3045 3047 3048 3051 3054 3058 3063 3069 3074 3079 3085 3090 3094 3096 3098 3101
3122 3121 3122 3122 3122 3122 3124 3106 3104 3104 3104 3102 3100 3098 3095 3092 3089 3084 3080 3076 3070 3066 3061 3056 3052 3049 3046 3044 3044 3043 3043 3046 3045 3046 3048 3051 3053 3054 3056 3060 3066 3072 3078 3084 3088 3091 3094 3094 3097
3118 3118 3119 3120 3120 3118 3117 3106 3102 3102 3101 3099 3097 3097 3095 3092 3089 3085 3081 3077 3073 3068 3064 3060 3055 3052 3049 3047 3045 3044 3045 3045 3047 3048 3049 3052 3054 3055 3056 3060 3066 3073 3076 3080 3085 3087 3088 3092 3093
Wind_Speed
3 3 5 7 4 6 6 2 6 10 9 11 10 8 8 10 10 8 14 10 9 11 12 13 14 14 13 13 13 14 13 12 10 10 11 10 13 12 10 8 9 5 3 4 5 6 6 7 6
4 4 5 7 5 2 5 2 7 11 12 10 6 11 9 11 15 13 16 18 19 15 13 14 17 17 16 15 15 15 16 14 13 12 13 12 13 14 11 10 10 8 4 4 5 7 7 6 6
4 8 4 5 1 5 5 8 6 12 16 8 9 11 12 13 15 16 19 18 18 19 18 17 17 19 18 16 22 17 18 16 15 14 14 15 14 16 13 12 11 9 6 4 5 6 5 6 5
6 6 8 3 3 2 8 9 5 0 10 14 10 10 12 14 14 18 23 22 22 21 20 19 21 22 22 22 24 27 25 21 19 17 16 17 16 17 16 15 13 11 7 5 5 2 2 3 3
5 7 5 3 4 7 7 9 7 9 14 16 15 14 16 17 18 21 24 22 23 25 23 23 24 25 26 25 25 23 24 25 21 20 18 18 18 18 19 16 14 11 9 7 7 5 3 1 1
4 8 2 4 4 7 12 6 10 11 14 15 13 16 21 20 19 22 26 26 26 29 29 26 24 26 26 28 22 28 31 30 23 20 19 18 19 20 20 19 16 14 12 10 11 10 6 3 2
2 4 3 2 3 10 9 12 12 8 12 14 13 18 21 17 19 21 25 27 27 26 30 31 30 27 28 32 26 26 24 20 17 19 20 19 19 19 20 20 19 17 14 13 14 11 7 3 3
3 3 3 5 6 11 8 14 9 9 11 10 10 13 20 18 20 22 26 28 28 29 26 30 33 32 30 26 35 22 19 21 22 29 23 20 20 19 20 21 21 19 16 17 16 11 5 4 5
2 4 6 6 5 7 5 9 11 11 15 13 12 13 15 18 19 19 22 26 27 28 29 27 30 32 33 29 27 31 29 23 18 24 22 26 21 21 19 19 19 17 18 18 20 14 8 7 4
0 2 4 5 5 5 5 6 11 13 16 19 20 18 17 19 22 23 19 19 23 24 27 26 27 30 31 29 28 28 25 29 25 25 16 29 25 23 23 21 20 20 18 14 19 16 10 12 6
3 2 3 1 2 1 5 10 11 12 14 16 19 20 19 18 19 21 22 21 19 21 24 26 26 27 29 28 26 27 29 26 22 20 18 22 19 26 25 24 23 22 20 22 21 14 8 7 6
2 5 4 1 1 5 8 10 11 13 14 14 15 17 17 18 18 20 20 21 22 21 21 22 24 24 26 28 27 25 29 31 25 24 25 29 28 26 27 25 25 23 23 20 22 17 18 9 6
4 4 3 2 4 7 8 8 9 12 13 14 15 15 15 17 19 19 19 21 21 20 20 20 21 22 23 25 25 28 23 29 30 29 29 34 31 34 28 29 25 26 24 24 18 16 15 14 6
3 3 2 5 5 8 7 8 12 11 13 14 14 13 14 15 17 19 20 20 21 21 19 19 19 18 18 19 22 24 23 26 29 31 32 34 33 29 32 27 30 28 27 23 22 16 17 13 5
3 2 5 5 9 9 10 8 10 11 13 15 16 16 15 16 16 17 19 21 22 22 21 18 18 18 17 16 18 17 23 28 30 32 33 34 35 27 25 31 32 29 27 25 24 23 14 15 13
3 5 11 14 13 11 11 9 11 10 11 13 16 18 20 20 21 20 20 21 22 23 22 21 18 17 15 14 15 16 18 25 26 31 31 33 32 32 25 22 26 33 28 24 25 25 25 20 18
3 6 11 14 15 11 13 9 14 10 9 13 16 18 20 21 22 22 22 24 25 23 21 19 18 16 16 14 15 14 16 16 21 27 31 33 33 34 29 39 32 34 28 25 23 23 20 18 19
5 6 9 14 20 15 14 11 11 9 9 12 14 17 19 21 21 22 22 23 24 24 20 18 17 16 17 14 14 15 15 11 17 23 27 30 32 30 31 32 25 33 29 29 28 20 19 18 15
7 9 8 13 16 21 15 14 11 11 9 12 13 16 19 19 21 21 21 21 25 25 22 19 17 17 16 16 14 15 13 12 14 18 18 16 21 31 35 32 22 35 29 26 23 20 22 21 17
10 10 8 9 16 21 17 21 13 9 13 10 10 14 16 19 22 22 22 25 27 25 24 21 19 17 18 16 15 14 14 12 11 18 19 18 23 29 32 30 27 31 28 28 25 21 21 17 16
12 11 12 15 14 18 18 12 7 11 13 12 9 11 14 16 19 22 23 26 27 26 25 23 20 18 13 13 14 11 12 13 12 16 19 17 26 30 26 26 33 31 29 29 25 22 18 14 12
12 11 14 18 15 6 14 7 7 12 14 15 10 11 15 19 20 22 24 26 28 27 25 22 19 18 11 3 9 7 8 10 8 7 23 22 12 40 36 34 29 28 26 26 23 21 17 15 13
9 12 15 17 12 6 5 5 6 13 15 21 15 12 14 17 21 24 24 26 27 27 23 21 19 17 12 3 7 9 9 11 6 9 15 22 18 28 25 27 29 27 24 22 22 21 20 17 13
9 11 16 10 6 1 1 4 7 8 16 20 12 10 12 17 21 25 24 26 26 24 23 20 19 19 11 4 4 7 10 9 9 11 10 16 8 31 33 34 29 28 29 25 23 22 20 18 14
6 11 5 4 3 3 3 8 4 11 14 17 12 10 12 17 22 25 27 27 27 25 23 20 18 19 11 5 5 5 9 7 9 10 16 16 15 18 27 25 24 30 31 26 23 23 20 19 17
8 3 0 4 2 5 11 6 4 12 15 16 12 10 11 14 19 23 26 27 26 24 21 19 18 18 12 6 7 5 11 13 8 11 12 16 18 17 24 27 31 27 32 27 20 23 21 21 19
2 2 2 3 4 4 4 5 8 5 13 13 11 9 11 13 18 21 24 26 26 23 21 18 17 17 12 15 7 3 4 9 9 8 10 6 11 18 21 23 26 33 30 29 25 14 19 16 23
7 4 2 2 1 4 6 8 4 6 13 14 13 11 11 14 16 19 21 23 25 24 20 17 16 16 15 7 15 13 7 4 7 6 7 5 8 12 23 26 31 29 22 19 20 19 19 17 19
6 6 5 3 3 4 1 5 5 10 12 22 23 17 13 14 15 17 19 21 23 23 21 18 16 15 14 11 5 3 3 8 8 8 8 6 7 9 8 22 30 31 26 21 20 21 22 18 18
13 10 10 5 4 5 3 11 3 4 13 28 24 21 16 14 14 15 17 18 20 22 22 21 20 19 16 14 12 7 2 2 7 9 11 12 11 11 10 20 18 9 10 28 29 27 27 20 14
Wind_Direction
132 122 136 129 107 90 99 91 232 241 270 297 300 288 284 275 261 263 265 275 292 266 251 243 234 231 232 237 242 241 244 240 231 227 218 207 200 202 200 200 180 184 144 111 106 113 127 133 141
127 119 134 108 79 146 115 189 247 280 289 292 294 311 299 279 273 261 267 275 273 278 268 256 236 236 232 236 239 241 239 239 230 226 222 212 207 205 209 199 191 182 165 120 105 102 113 129 146
121 140 154 98 18 124 174 241 283 308 309 293 281 291 293 277 275 280 277 284 286 286 282 265 240 239 245 232 231 240 239 231 230 228 221 215 207 208 212 197 202 198 187 160 129 94 99 121 152
105 117 102 90 185 184 256 264 285 265 298 302 305 285 278 278 284 280 282 286 286 284 286 275 257 240 242 246 249 234 229 223 216 221 218 215 210 207 208 206 206 207 211 208 185 136 87 91 151
92 128 101 190 239 269 287 296 274 254 270 293 307 299 285 283 279 277 277 278 281 282 278 274 269 262 250 245 239 239 238 212 219 217 213 213 207 205 206 210 214 213 215 221 209 205 197 185 186
150 118 90 193 228 281 309 306 320 303 300 313 311 298 295 305 293 286 283 277 273 275 273 271 271 269 262 256 261 256 268 225 228 225 217 211 207 205 206 210 215 220 228 222 218 214 212 194 225
96 139 138 106 356 291 304 310 322 313 310 320 308 290 303 313 302 294 288 287 284 273 270 268 265 264 265 258 264 261 279 263 235 221 219 216 212 207 204 208 213 219 225 221 215 215 199 207 256
103 126 125 180 245 272 304 308 343 328 335 331 322 318 317 310 301 299 293 290 288 286 279 270 266 263 265 267 252 263 267 235 227 231 215 216 211 210 208 214 218 222 222 219 223 208 230 233 251
97 140 196 258 261 283 334 328 350 348 339 350 345 339 325 314 307 300 293 290 288 285 283 279 271 267 262 257 259 260 266 269 254 220 220 217 210 206 207 213 217 217 218 219 218 204 214 209 223
248 219 256 284 280 300 339 356 2 354 353 350 343 349 341 331 322 318 311 299 294 291 287 283 275 271 269 263 250 249 248 254 258 257 244 230 219 206 205 209 212 214 220 220 197 243 192 180 213
345 18 15 315 230 305 7 18 20 8 2 353 347 343 330 324 324 319 320 317 305 295 289 283 279 272 270 268 261 243 240 238 237 247 231 224 224 204 208 208 211 216 221 216 227 204 190 218 223
49 55 60 14 35 45 28 28 21 13 4 351 344 332 327 330 328 327 323 321 317 310 301 290 284 279 269 268 265 252 237 231 232 232 232 228 227 229 212 212 214 214 220 229 233 228 226 202 213
57 70 59 13 10 37 41 32 22 15 3 357 349 339 340 337 335 332 328 322 318 313 308 302 294 284 281 275 267 261 238 238 226 224 229 219 237 248 223 204 214 216 219 225 223 202 218 217 238
62 59 33 351 350 16 40 27 13 8 2 4 355 348 354 348 339 334 329 323 316 314 309 307 302 284 282 283 275 261 241 233 231 228 229 233 228 241 260 217 209 214 220 218 235 219 213 214 252
354 351 348 311 337 358 12 16 6 3 3 357 352 351 358 355 348 341 333 328 321 312 307 304 300 290 282 284 277 269 252 233 225 229 228 229 233 241 248 255 220 210 218 220 224 226 198 219 217
6 13 353 341 326 325 348 340 3 356 352 347 347 351 355 355 352 354 345 337 327 319 313 304 298 292 281 276 257 273 255 247 231 232 234 232 235 237 230 227 222 208 215 218 218 218 218 226 235
1 347 356 338 323 319 322 324 342 351 341 344 346 348 352 353 352 354 352 346 339 330 321 309 298 288 278 261 278 252 242 243 236 233 235 236 234 231 234 217 230 212 208 207 214 222 211 218 237
322 326 341 335 331 320 304 312 313 328 345 343 341 349 349 351 351 354 353 346 337 335 330 317 299 284 270 259 255 241 242 250 224 232 237 239 230 219 207 205 229 203 202 207 215 215 214 205 228
310 310 331 337 339 325 309 311 297 329 343 335 335 349 352 348 352 353 353 347 341 341 336 327 316 294 272 261 247 247 250 246 231 237 229 235 210 194 196 203 212 213 197 207 206 209 215 228 237
298 310 319 328 344 328 311 315 276 328 4 330 338 353 352 350 348 350 352 351 346 343 340 338 333 319 285 259 253 241 247 249 243 213 219 222 191 194 197 201 211 197 194 202 201 207 215 231 242
306 312 320 319 334 327 321 320 307 311 327 354 348 352 349 349 350 348 352 349 345 346 345 343 341 339 309 270 260 257 241 250 239 221 213 205 205 191 190 192 209 197 193 201 203 208 221 223 222
310 316 317 317 319 326 321 293 317 331 330 345 357 358 353 351 350 355 351 348 345 350 349 345 349 344 328 267 260 242 247 249 234 228 204 183 153 195 197 210 207 192 192 199 200 209 212 222 220
303 315 317 314 308 328 329 306 301 326 331 340 347 359 351 349 356 359 354 349 350 353 351 351 357 353 341 224 218 227 241 223 253 240 246 232 180 165 171 191 193 186 194 202 203 207 216 224 220
302 316 311 303 306 331 71 349 298 323 326 335 339 347 352 353 358 1 359 356 357 357 356 1 4 5 3 5 194 209 200 194 247 182 209 225 195 175 184 185 180 191 195 203 210 214 218 224 229
314 323 309 340 360 204 275 304 279 326 333 331 328 345 358 355 358 359 2 1 3 6 357 7 11 22 46 354 133 150 182 198 168 168 187 210 204 214 205 202 180 196 188 197 202 212 212 218 228
309 321 34 228 302 278 280 241 317 328 333 331 330 338 352 355 356 3 3 4 7 11 5 12 15 38 57 64 114 123 162 140 128 179 191 204 204 212 212 204 193 186 206 205 212 209 223 216 220
280 289 282 266 294 316 279 286 318 358 348 336 334 339 348 352 360 3 8 7 9 15 16 20 21 34 63 73 68 146 161 153 190 163 189 180 193 199 209 196 206 204 204 214 223 230 242 232 243
243 252 274 252 47 303 284 281 262 325 345 344 342 347 352 353 357 1 12 11 16 19 22 26 31 34 39 87 64 39 59 141 171 170 169 187 171 183 208 208 199 202 201 213 228 234 244 245 250
244 247 236 233 235 168 288 284 304 322 344 351 344 341 348 350 350 357 9 17 23 26 31 33 34 39 49 53 86 162 345 107 120 165 167 139 153 186 170 202 214 213 200 214 226 231 240 249 248
259 249 234 223 215 219 241 281 331 330 322 335 334 332 338 344 344 352 8 17 30 36 39 41 43 44 47 56 68 65 33 185 187 203 211 215 197 168 167 168 166 168 203 219 225 239 247 237 238